Temperature
19 18 18 17 16 16 16 16 17 17 17 17 17 17 17 17 17 17 17 17 17 16 16 16 16 16 16 16 16 16 16 15 15 15 15 15 15 15 15 15 14 15 14
19 18 18 17 17 16 16 16 16 17 16 16 17 17 17 17 17 16 16 16 16 16 16 16 16 16 15 15 15 15 15 15 15 15 15 15 15 14 14 14 14 14 14
18 18 18 17 17 16 16 16 16 16 16 16 16 16 16 16 16 16 16 16 16 16 16 15 15 15 15 15 15 15 15 15 15 15 14 14 14 14 14 14 14 14 14
18 18 18 17 17 16 16 16 16 16 16 16 16 16 16 16 16 16 16 16 16 16 15 15 15 15 15 15 15 15 15 15 15 14 14 14 14 14 14 14 14 13 13
18 18 18 17 17 16 16 16 16 16 16 16 16 16 16 16 16 16 16 16 15 15 15 15 15 15 15 15 15 15 15 14 14 14 14 14 14 14 13 13 13 13 13
18 18 17 17 17 16 16 16 16 16 16 16 16 16 16 16 16 15 15 15 15 15 15 15 15 15 15 15 15 14 14 14 14 14 14 14 14 14 13 13 13 13 13
18 17 17 17 16 16 16 16 16 16 16 16 16 16 15 15 15 15 15 15 15 15 15 15 15 15 15 14 14 14 14 14 14 14 14 14 14 13 13 13 13 13 13
17 17 17 16 16 16 16 16 16 15 15 15 15 15 15 15 15 15 15 15 15 15 15 15 14 14 14 14 14 14 14 14 14 14 14 14 14 14 13 13 13 13 13
17 17 16 16 16 16 16 16 15 15 15 15 15 15 15 15 15 15 15 15 14 14 14 14 14 14 14 14 14 14 14 14 14 14 14 13 13 13 13 13 13 12 12
16 16 16 16 16 16 16 15 15 15 15 15 15 15 15 14 14 14 14 14 14 14 14 14 14 14 14 14 14 14 13 13 13 13 13 13 13 13 13 13 13 12 12
16 16 16 16 16 15 15 15 15 15 15 15 15 15 14 14 14 14 14 14 14 14 14 14 14 13 14 14 13 13 13 13 13 13 13 13 13 13 13 13 13 12 12
16 16 16 15 15 15 15 15 15 15 15 15 14 14 14 14 14 14 14 14 14 14 14 13 13 13 13 13 13 13 13 13 13 13 13 13 13 13 13 13 13 12 12
16 16 15 15 15 15 15 15 15 15 14 14 14 14 14 14 14 14 14 14 14 13 13 13 13 13 13 13 13 13 13 13 13 13 13 13 12 13 12 12 12 12 12
16 16 15 15 15 15 15 15 15 14 14 14 14 14 14 14 13 13 13 13 13 13 13 13 13 13 13 13 13 13 13 13 12 12 12 12 12 12 12 12 12 12 12
16 15 15 15 15 15 15 15 14 14 14 14 14 13 13 13 13 13 13 13 13 13 13 13 13 13 13 13 13 12 12 12 12 12 12 12 12 12 12 12 12 11 11
15 15 15 15 15 15 14 14 14 14 14 14 13 13 13 13 13 13 13 13 13 13 13 13 12 12 12 12 12 12 12 12 12 12 12 12 12 12 12 11 11 11 11
15 15 15 15 15 14 14 14 14 14 14 13 13 13 13 12 12 12 12 12 12 12 12 12 12 12 12 12 12 12 12 12 12 12 12 12 11 11 11 11 11 11 11
15 15 15 15 14 14 14 14 14 13 13 13 13 13 12 12 12 12 12 12 12 12 12 12 12 12 12 11 12 12 12 12 11 11 11 11 11 11 11 11 11 11 11
15 15 15 14 14 14 14 14 13 13 13 12 12 12 12 12 12 12 11 11 11 11 11 11 11 11 11 11 11 11 11 11 11 11 11 11 11 11 11 11 11 10 10
15 14 14 14 14 14 14 13 13 13 12 12 12 12 12 11 11 11 11 11 11 11 11 11 11 11 11 11 11 11 11 11 11 11 11 11 11 10 10 10 10 10 10
14 14 14 14 14 14 13 13 13 12 12 12 12 12 11 11 11 11 11 11 11 10 10 10 10 10 10 10 10 10 10 10 10 10 10 10 10 10 10 10 10 10 10
14 14 14 14 13 13 13 13 13 12 12 12 11 11 11 11 11 11 11 10 10 10 10 10 10 10 9 9 8 8 8 9 9 9 9 9 9 9 10 10 9 9 9
14 14 14 13 13 13 13 12 12 12 12 11 11 11 11 11 10 10 10 10 10 10 9 9 9 9 9 8 8 7 7 7 7 8 9 9 9 9 9 9 9 9 9
13 13 13 13 13 13 12 12 12 12 12 11 11 11 10 10 10 10 9 9 9 9 9 9 9 8 8 8 8 7 7 6 6 6 7 8 8 8 8 9 9 8 8
13 13 13 13 12 12 12 12 12 11 11 11 11 10 10 10 9 9 9 9 9 9 8 8 8 8 8 7 7 7 7 6 6 6 6 7 7 8 8 8 8 8 8
12 12 12 12 12 12 11 11 11 11 11 10 10 10 10 9 9 9 8 8 8 8 8 8 8 7 7 7 7 6 6 6 6 5 5 5 6 7 7 7 7 7 7
Wind_Speed
3 4 7 9 9 9 9 10 10 9 9 10 10 10 10 10 10 9 9 9 8 8 7 7 7 7 6 6 7 7 7 8 8 8 8 8 8 8 7 8 7 7 7
4 6 8 9 9 9 9 9 9 9 9 9 10 9 9 9 8 8 8 8 7 7 6 6 6 6 6 6 7 7 8 8 8 8 7 7 7 6 6 7 6 6 7
5 7 8 9 9 9 9 9 9 8 8 8 8 8 8 8 8 7 7 6 6 6 5 5 5 5 6 6 7 7 8 8 7 7 7 6 5 5 5 6 6 6 6
6 6 7 9 9 9 9 8 8 8 8 7 7 7 7 7 7 6 6 6 5 5 5 4 5 5 5 5 6 6 6 7 6 6 5 4 3 4 4 5 5 5 5
5 5 7 9 9 9 8 8 8 8 7 7 6 6 6 6 6 6 6 5 5 4 4 4 5 5 4 5 5 5 6 6 5 5 4 3 2 4 4 4 4 4 5
5 5 7 9 8 8 8 7 7 7 7 6 6 6 5 5 5 5 5 5 4 4 4 4 4 4 4 4 4 4 5 5 5 4 3 2 3 4 5 5 5 4 5
5 4 6 8 8 7 7 6 6 6 6 6 5 5 5 4 4 4 5 4 4 3 3 3 3 3 3 3 3 3 4 4 5 4 2 2 3 5 6 6 6 6 6
6 4 5 7 7 6 6 6 5 5 5 5 5 5 4 4 3 3 4 4 4 3 2 3 3 2 3 3 3 3 4 4 4 3 3 3 4 5 6 7 6 7 7
3 3 3 4 5 6 6 5 5 4 4 4 4 4 4 3 3 3 3 3 3 3 2 2 2 2 2 3 3 3 4 4 4 4 4 4 6 6 6 6 7 7 7
2 2 2 2 3 4 4 4 4 4 3 3 4 3 3 3 3 3 3 3 3 3 2 2 2 2 2 2 3 3 4 4 4 5 5 6 7 7 7 7 7 8 9
2 1 2 2 2 3 3 3 4 3 3 2 2 3 2 2 2 2 2 2 3 3 4 3 3 2 2 2 2 3 3 4 5 5 6 7 8 8 8 8 9 8 8
4 4 3 3 3 2 2 3 3 2 2 2 2 2 2 2 2 2 2 2 3 4 4 4 3 3 2 1 2 2 2 4 5 5 7 9 9 10 9 10 10 10 10
5 4 4 4 3 3 2 2 2 2 2 2 2 2 2 2 1 1 1 1 3 3 2 2 2 1 1 1 1 2 2 3 4 6 8 10 11 11 11 11 11 11 12
4 4 4 4 4 3 2 2 2 1 1 1 1 2 2 1 0 0 0 1 1 1 1 1 1 1 2 2 2 2 3 3 4 6 8 11 12 12 12 13 13 13 13
5 5 4 4 5 4 3 2 2 2 1 1 1 1 2 1 1 1 1 1 1 2 1 2 2 2 2 2 2 3 3 4 5 6 8 11 12 13 14 14 14 14 14
6 5 5 5 5 4 4 3 2 2 1 2 1 1 2 2 1 1 1 1 2 2 2 2 3 3 3 2 3 3 4 5 6 7 8 10 12 13 14 15 15 15 15
6 5 5 5 4 5 4 4 2 2 2 1 1 2 2 2 2 1 1 2 2 2 2 2 2 2 2 2 4 4 4 4 5 6 8 8 9 11 14 15 15 15 15
5 5 5 4 4 4 4 3 2 2 2 1 1 1 2 2 2 1 1 2 2 1 1 2 2 2 3 3 4 4 4 4 5 6 7 8 8 8 10 13 14 15 16
6 5 5 4 5 5 4 3 2 2 2 1 1 1 1 2 2 2 1 1 1 1 1 2 2 2 3 3 4 4 4 5 5 5 6 7 7 8 8 10 12 14 16
5 5 5 4 4 4 3 3 2 1 1 1 1 1 2 2 2 2 1 1 1 1 1 2 2 2 3 3 4 4 4 5 4 5 6 5 6 8 8 9 9 11 14
3 4 5 5 4 4 3 3 2 2 1 1 1 1 2 2 2 2 1 1 1 2 2 2 2 2 2 1 1 3 4 4 4 4 4 4 5 6 7 8 8 9 10
4 5 4 5 5 5 4 4 3 2 1 1 1 0 1 1 1 1 1 2 2 2 2 2 2 2 2 1 1 1 3 3 3 4 4 4 5 4 5 7 8 9 9
5 6 6 6 5 5 4 3 2 2 1 1 0 1 1 0 1 1 2 2 2 2 2 3 3 3 3 2 2 2 2 3 4 3 4 5 5 5 6 6 7 8 10
6 5 5 5 5 4 5 5 5 3 2 2 1 1 1 0 0 1 2 2 2 2 2 3 2 3 3 3 2 2 3 2 2 4 3 4 5 6 7 6 7 8 10
4 4 4 4 3 3 4 5 5 3 2 1 0 0 1 1 1 1 1 2 2 2 3 3 3 3 3 4 3 2 3 3 3 4 6 5 4 5 6 7 6 7 9
2 3 4 4 3 3 4 4 5 4 3 2 1 1 1 1 2 2 2 2 2 2 3 3 3 4 4 4 4 3 3 2 3 4 6 6 6 5 6 6 6 7 7
Wind_Direction
220 203 179 156 148 143 138 133 129 126 123 119 116 116 117 118 118 120 120 117 113 109 110 113 111 110 110 115 120 123 121 122 124 121 121 120 117 117 119 119 115 111 115
172 174 171 155 151 146 140 136 132 128 129 128 124 121 121 122 124 125 127 127 123 118 115 116 116 113 110 113 116 118 117 117 114 113 113 115 117 120 123 127 127 128 127
144 157 166 156 154 149 143 139 134 133 131 132 131 128 127 127 127 129 129 130 130 127 122 119 119 117 113 114 118 118 116 117 113 114 110 111 121 129 136 142 143 142 138
140 149 158 158 157 152 146 142 140 138 134 133 134 134 135 135 134 129 129 131 132 131 125 118 119 121 119 119 122 121 120 120 116 112 111 119 139 155 160 159 158 157 150
131 144 151 155 156 154 149 145 143 142 140 136 134 137 143 143 141 139 137 138 138 135 130 129 131 126 126 127 129 128 126 123 118 113 116 131 164 188 188 181 171 167 165
136 137 150 153 153 152 151 149 148 149 147 143 139 140 143 150 153 151 147 148 146 144 139 138 140 140 140 145 147 140 138 134 124 120 129 152 197 210 210 200 191 191 189
147 137 147 151 154 152 151 152 151 152 152 154 152 151 151 153 158 157 150 149 148 151 154 155 150 154 163 168 171 166 158 147 138 136 153 199 223 226 225 217 208 208 205
149 136 143 156 155 154 152 150 156 162 164 166 167 166 168 166 161 163 162 157 157 163 163 161 161 174 185 188 191 186 174 161 155 164 187 221 244 241 236 230 221 219 214
115 118 118 152 159 159 159 158 159 166 176 179 179 182 180 174 174 175 173 178 176 177 172 166 170 191 207 212 209 197 188 181 169 190 209 229 243 245 241 235 229 224 220
101 116 127 118 139 151 159 167 169 171 177 186 188 188 193 190 189 188 185 195 201 206 211 210 206 215 224 228 222 206 202 194 195 207 219 234 242 243 243 242 241 236 228
145 169 165 142 121 137 146 159 162 172 181 183 180 182 183 176 176 189 191 205 226 231 237 241 238 236 237 245 239 225 214 204 206 218 229 238 241 244 245 246 245 242 237
198 200 192 182 168 135 146 140 144 160 165 159 147 156 154 154 169 191 204 218 239 247 249 251 249 243 250 264 256 235 224 223 216 227 238 243 244 248 248 248 248 244 243
206 202 203 196 178 162 148 126 123 136 133 132 146 161 153 150 163 174 182 247 256 257 257 266 267 266 247 235 240 238 237 234 236 239 244 246 248 251 252 251 250 248 246
200 211 211 198 186 178 157 138 128 123 110 107 138 149 132 114 128 168 186 249 255 246 238 246 241 250 234 226 219 228 240 242 250 252 252 250 250 253 255 256 254 253 250
203 210 209 195 192 183 170 167 155 168 158 146 138 151 151 145 221 232 246 255 260 256 239 238 241 240 237 233 228 227 238 244 251 253 258 255 252 254 256 259 259 258 255
209 209 201 196 193 179 179 181 180 175 145 135 144 177 176 175 189 218 242 266 270 257 247 238 238 237 239 237 242 238 244 246 251 255 260 262 257 256 258 260 261 261 261
211 206 197 195 186 179 182 184 173 166 147 151 164 183 183 183 185 192 231 253 268 261 255 255 249 239 242 245 249 248 241 243 250 252 255 257 260 258 257 259 262 263 264
200 200 201 190 179 180 179 175 165 159 155 168 166 166 180 182 177 176 210 248 272 270 257 247 251 242 246 247 255 255 249 245 248 251 251 251 252 258 261 262 264 266 267
197 193 190 185 178 179 171 160 157 154 154 173 160 163 196 193 180 170 208 253 268 273 263 265 260 239 245 257 260 258 255 249 249 249 248 249 249 252 256 263 267 269 270
192 188 184 177 177 168 156 139 128 126 161 164 180 204 192 189 183 171 196 234 215 209 260 273 263 258 243 255 275 273 265 260 251 245 245 247 250 252 253 256 263 268 271
180 183 186 176 176 163 159 162 170 196 212 210 208 185 170 173 171 163 199 218 209 210 230 242 250 268 262 256 282 294 284 263 256 250 247 251 254 253 253 253 256 259 265
192 190 185 184 180 176 178 176 175 178 187 199 214 167 138 156 170 193 192 213 224 230 244 248 235 250 270 219 205 296 301 303 277 256 254 255 259 256 255 258 257 256 256
194 193 187 185 181 178 165 142 113 89 75 100 260 254 275 164 167 205 220 224 228 224 237 245 222 222 248 242 196 207 253 266 300 271 250 247 254 259 262 258 256 256 258
206 195 184 173 172 170 159 157 161 171 197 221 217 216 305 5 17 236 229 229 228 232 234 240 229 226 226 246 243 232 241 245 268 291 283 262 263 263 262 267 261 261 261
196 183 179 157 157 160 159 162 160 169 187 174 95 111 309 317 332 301 250 236 235 240 239 236 234 234 224 229 232 237 254 264 241 256 282 286 280 258 260 262 261 260 262
170 162 156 146 151 150 149 155 159 163 161 144 196 231 281 301 299 291 268 247 241 245 244 240 232 228 232 231 234 230 232 240 252 257 272 284 284 277 271 262 258 259 262
Height
1495 1496 1497 1499 1500 1502 1503 1505 1506 1507 1509 1510 1511 1512 1513 1514 1515 1515 1516 1517 1517 1518 1518 1519 1520 1521 1521 1521 1521 1522 1523 1523 1524 1525 1525 1526 1527 1527 1527 1528 1528 1529 1529
1495 1496 1497 1499 1500 1502 1503 1505 1506 1507 1509 1510 1511 1512 1513 1514 1514 1515 1516 1517 1517 1518 1518 1519 1520 1520 1521 1521 1521 1522 1522 1523 1524 1525 1526 1526 1527 1527 1527 1528 1529 1529 1529
1495 1496 1497 1499 1501 1502 1504 1505 1506 1507 1509 1510 1511 1512 1512 1513 1514 1515 1516 1516 1517 1518 1518 1519 1520 1520 1521 1521 1521 1522 1522 1523 1524 1525 1525 1526 1526 1527 1527 1528 1528 1529 1529
1495 1496 1497 1499 1500 1502 1504 1505 1506 1507 1508 1509 1510 1511 1512 1513 1514 1515 1515 1516 1517 1517 1518 1519 1519 1520 1520 1521 1521 1522 1522 1523 1524 1524 1525 1525 1526 1527 1527 1528 1528 1528 1529
1495 1496 1497 1499 1500 1502 1503 1504 1506 1507 1508 1509 1510 1511 1512 1513 1513 1514 1515 1515 1516 1517 1517 1518 1519 1519 1520 1521 1521 1522 1522 1523 1523 1524 1524 1525 1525 1526 1526 1527 1528 1528 1528
1495 1496 1497 1499 1500 1501 1503 1504 1505 1506 1507 1508 1509 1510 1511 1512 1512 1513 1514 1515 1515 1516 1517 1517 1518 1519 1519 1520 1520 1521 1521 1522 1523 1523 1523 1524 1524 1525 1526 1526 1527 1527 1527
1495 1496 1497 1498 1499 1501 1502 1503 1504 1505 1506 1507 1508 1509 1510 1511 1512 1512 1513 1514 1514 1515 1516 1516 1517 1518 1518 1519 1519 1520 1520 1521 1522 1522 1522 1523 1523 1524 1524 1525 1526 1526 1526
1495 1496 1497 1498 1499 1500 1501 1502 1503 1504 1505 1506 1507 1508 1509 1510 1511 1511 1512 1513 1513 1514 1514 1515 1516 1516 1517 1518 1518 1519 1519 1520 1520 1521 1521 1521 1522 1522 1523 1524 1524 1524 1525
1494 1495 1496 1497 1498 1499 1500 1501 1502 1503 1504 1505 1506 1507 1507 1508 1509 1510 1511 1511 1512 1513 1513 1514 1514 1515 1515 1516 1516 1517 1517 1518 1519 1519 1519 1520 1520 1520 1521 1522 1522 1523 1523
1493 1494 1495 1496 1497 1497 1498 1499 1500 1501 1502 1503 1504 1505 1506 1507 1508 1508 1509 1510 1510 1511 1511 1512 1512 1513 1513 1514 1514 1515 1515 1516 1517 1517 1517 1518 1518 1518 1519 1519 1520 1521 1521
1492 1493 1493 1494 1495 1496 1497 1498 1498 1499 1500 1501 1502 1503 1504 1505 1506 1506 1507 1508 1508 1509 1509 1510 1510 1511 1511 1512 1512 1512 1513 1513 1514 1514 1515 1515 1515 1516 1516 1517 1517 1518 1519
1489 1491 1491 1492 1493 1494 1495 1496 1496 1497 1498 1499 1500 1501 1502 1503 1503 1504 1505 1505 1506 1506 1507 1507 1508 1508 1508 1509 1509 1510 1510 1511 1511 1511 1512 1513 1513 1513 1514 1514 1515 1515 1516
1488 1489 1490 1490 1491 1492 1493 1493 1494 1495 1496 1497 1498 1499 1500 1500 1501 1502 1502 1503 1503 1504 1504 1505 1505 1505 1505 1506 1506 1507 1507 1508 1508 1508 1509 1509 1510 1510 1511 1511 1512 1512 1512
1486 1487 1488 1488 1489 1490 1491 1491 1492 1493 1494 1495 1495 1496 1497 1498 1498 1499 1499 1500 1500 1501 1501 1502 1502 1502 1502 1503 1503 1504 1504 1504 1505 1505 1505 1506 1506 1507 1507 1507 1508 1508 1509
1483 1484 1485 1486 1487 1488 1489 1489 1490 1490 1491 1492 1493 1493 1494 1495 1495 1496 1496 1497 1497 1498 1498 1498 1498 1499 1499 1499 1499 1500 1500 1501 1501 1501 1502 1502 1502 1503 1503 1503 1504 1504 1504
1480 1481 1482 1484 1485 1485 1486 1487 1487 1488 1489 1490 1490 1491 1491 1492 1493 1493 1493 1494 1494 1494 1495 1495 1495 1495 1495 1495 1496 1496 1496 1497 1497 1497 1497 1498 1498 1498 1499 1499 1499 1499 1500
1477 1478 1479 1481 1482 1483 1483 1484 1485 1486 1486 1487 1488 1488 1489 1489 1490 1490 1491 1491 1491 1491 1492 1492 1492 1492 1491 1491 1491 1492 1492 1492 1492 1493 1493 1493 1493 1494 1494 1494 1494 1494 1495
1473 1475 1476 1477 1478 1479 1480 1481 1482 1483 1484 1484 1485 1485 1486 1486 1487 1487 1488 1488 1488 1488 1488 1488 1488 1488 1487 1487 1487 1487 1487 1487 1488 1488 1488 1488 1488 1488 1489 1489 1489 1489 1489
1469 1471 1472 1474 1475 1476 1477 1478 1479 1480 1481 1481 1482 1482 1483 1483 1484 1484 1484 1485 1485 1485 1485 1485 1484 1484 1483 1483 1482 1482 1482 1482 1482 1482 1483 1483 1483 1483 1483 1483 1484 1484 1484
1465 1467 1469 1470 1471 1473 1474 1475 1476 1477 1477 1478 1478 1479 1480 1480 1481 1481 1481 1481 1482 1481 1481 1481 1480 1480 1479 1479 1478 1477 1477 1477 1477 1477 1477 1477 1478 1478 1478 1478 1478 1478 1478
1461 1463 1464 1466 1468 1469 1470 1471 1472 1473 1474 1474 1475 1476 1476 1477 1477 1478 1478 1478 1478 1477 1477 1477 1477 1476 1475 1475 1474 1472 1471 1472 1472 1472 1472 1472 1472 1472 1472 1472 1472 1472 1471
1457 1458 1460 1462 1464 1465 1466 1468 1469 1470 1471 1472 1472 1473 1473 1473 1474 1474 1474 1474 1474 1473 1473 1473 1472 1472 1471 1471 1470 1469 1467 1466 1465 1466 1467 1467 1467 1467 1466 1466 1466 1465 1465
1453 1454 1456 1458 1460 1462 1463 1465 1466 1467 1467 1468 1469 1469 1470 1470 1470 1470 1470 1470 1470 1469 1469 1469 1468 1468 1468 1467 1467 1468 1466 1462 1460 1460 1460 1461 1461 1461 1460 1460 1459 1459 1459
1449 1451 1452 1454 1456 1458 1460 1461 1462 1463 1463 1464 1465 1466 1466 1467 1466 1466 1466 1466 1466 1465 1465 1465 1464 1464 1464 1463 1463 1463 1463 1461 1459 1455 1454 1455 1455 1454 1454 1453 1453 1452 1452
1446 1447 1449 1451 1453 1455 1457 1458 1459 1460 1461 1462 1462 1463 1463 1463 1463 1462 1462 1462 1461 1461 1460 1460 1460 1460 1459 1459 1458 1457 1457 1457 1455 1454 1449 1448 1448 1448 1448 1447 1446 1446 1445
1442 1444 1446 1448 1450 1452 1453 1455 1456 1457 1457 1458 1459 1459 1459 1459 1459 1459 1458 1458 1457 1456 1456 1456 1455 1455 1454 1454 1454 1452 1451 1451 1450 1449 1446 1442 1441 1440 1441 1441 1440 1439 1438